This is the latest recevied weather packets stored in our database for station/object G4KVI. If no packets are shown the sender has not sent any weather packets the latest 1 day(s).
| Time | Temp. | Humidity | Pressure | Rain* | Wind** | Luminosity | Snow |
|---|---|---|---|---|---|---|---|
| 1777980968 | 14.44° C | 58% | 1015.8 hPa | 0 mm | 1.34 m/s, 3° | 854 W/m² | - |
| 1777980668 | 14.44° C | 58% | 1016 hPa | 0 mm | 1.34 m/s, 344° | 425 W/m² | - |
| 1777980368 | 13.89° C | 59% | 1016.2 hPa | 0 mm | 1.34 m/s, 342° | 825 W/m² | - |
| 1777980068 | 13.33° C | 60% | 1015.8 hPa | 0 mm | 1.34 m/s, 348° | 275 W/m² | - |
| 1777979768 | 13.33° C | 58% | 1015.9 hPa | 0 mm | 1.34 m/s, 33° | 253 W/m² | - |
| 1777979468 | 13.33° C | 60% | 1016.1 hPa | 0 mm | 1.34 m/s, 36° | 385 W/m² | - |
| 1777979168 | 13.33° C | 59% | 1016.1 hPa | 0 mm | 1.34 m/s, 346° | 373 W/m² | - |
| 1777978868 | 13.89° C | 58% | 1015.9 hPa | 0 mm | 1.34 m/s, 17° | 220 W/m² | - |
| 1777978568 | 13.89° C | 59% | 1016.2 hPa | 0 mm | 1.34 m/s, 38° | 244 W/m² | - |
| 1777978268 | 13.33° C | 59% | 1016.1 hPa | 0 mm | 1.79 m/s, 48° | 427 W/m² | - |
| 1777977968 | 13.33° C | 59% | 1015.9 hPa | 0 mm | 1.79 m/s, 56° | 535 W/m² | - |
| 1777977668 | 13.89° C | 58% | 1015.7 hPa | 0 mm | 1.79 m/s, 49° | 388 W/m² | - |
| 1777977368 | 13.33° C | 59% | 1016.1 hPa | 0 mm | 1.79 m/s, 59° | 583 W/m² | - |
| 1777977068 | 13.33° C | 59% | 1016 hPa | 0 mm | 1.79 m/s, 66° | 454 W/m² | - |
| 1777976768 | 13.89° C | 58% | 1016.2 hPa | 0 mm | 1.34 m/s, 47° | 562 W/m² | - |
| 1777976468 | 13.89° C | 57% | 1016.4 hPa | 0 mm | 1.79 m/s, 1° | 533 W/m² | - |
| 1777976168 | 13.33° C | 57% | 1016.1 hPa | 0 mm | 1.34 m/s, 360° | 525 W/m² | - |
| 1777975868 | 13.89° C | 55% | 1016.2 hPa | 0 mm | 1.34 m/s, 11° | 445 W/m² | - |
| 1777975568 | 13.89° C | 55% | 1016.3 hPa | 0 mm | 1.79 m/s, 360° | 539 W/m² | - |
| 1777975268 | 13.89° C | 55% | 1016.2 hPa | 0 mm | 1.79 m/s, 327° | 626 W/m² | - |
| 1777974968 | 13.89° C | 57% | 1016.2 hPa | 0 mm | 2.24 m/s, 334° | 620 W/m² | - |
| 1777974668 | 13.89° C | 56% | 1016.2 hPa | 0 mm | 1.79 m/s, 345° | 620 W/m² | - |
| 1777974368 | 13.89° C | 58% | 1016.1 hPa | 0 mm | 1.34 m/s, 342° | 610 W/m² | - |
| 1777974068 | 13.89° C | 59% | 1016.2 hPa | 0 mm | 1.34 m/s, 6° | 596 W/m² | - |
| 1777973768 | 13.89° C | 59% | 1016 hPa | 0 mm | 1.34 m/s, 19° | 593 W/m² | - |
* Rain latest hour (hover to see other rain measurements)
** Current wind speed in m/s (hover to see current wind gust speed)